Regional Weather Roundup
Issued by NWS

Home | Current Version | Previous Version | Text Only | Print | Product List | Glossary Off
Versions: 1 2 3 4 5 6 7 8 9 10 11 12 13 14 15 16 17 18 19 20 21 22 23 24 25 26 27 28 29 30 31 32 33 34 35 36 37 38 39 40 41 42 43 44 45 46 47 48 49 50

000
ASUS43 KBIS 280510
RWRND

NORTH DAKOTA REGIONAL WEATHER ROUNDUP
NATIONAL WEATHER SERVICE BISMARCK ND
1100 PM CST MON FEB 27 2017

NOTE: "FAIR" INDICATES FEW OR NO CLOUDS BELOW 12,000 FEET WITH NO
SIGNIFICANT WEATHER AND/OR OBSTRUCTIONS TO VISIBILITY.


NDZ001>003-009>011-017-280600-
NORTHWEST NORTH DAKOTA

CITY           SKY/WX    TMP DP  RH WIND       PRES   REMARKS
WILLISTON      FAIR       6   2  83 N5        29.84S WCI  -3
MINOT          FAIR       3  -2  79 NW3       29.88F
MINOT AFB      CLEAR     -4  -8  82 CALM      29.88F
$$

NDZ018>021-031>035-040>046-280600-
SOUTHWEST NORTH DAKOTA

CITY           SKY/WX    TMP DP  RH WIND       PRES   REMARKS
BISMARCK       CLOUDY    20  16  84 NE9       29.85F WCI   9
DICKINSON      CLOUDY    14  11  87 E9        29.75F WCI   2
GARRISON         N/A      0  -3  87 NE8       29.85F WCI -14
HETTINGER ARPT CLOUDY    19  15  84 E14       29.76F WCI   6
$$

NDZ004>008-012>016-024-026-027-054-280600-
NORTHEAST NORTH DAKOTA

CITY           SKY/WX    TMP DP  RH WIND       PRES   REMARKS
GRAND FORKS    CLOUDY    17  10  74 N16       29.93S WCI   2
GRND FRKS AFB  CLOUDY    15  11  83 N14       29.93F WCI   0
DEVILS LAKE    FLURRIES  12   8  84 NE9       29.92R WCI   0
$$

NDZ022-023-025-028>030-036>039-047>053-280600-
SOUTHEAST NORTH DAKOTA

CITY           SKY/WX    TMP DP  RH WIND       PRES   REMARKS
FARGO          CLOUDY    24  20  84 N15       29.86S WCI  11
JAMESTOWN      CLOUDY    20  17  88 NE9       29.85S WCI   9
$$




USA.gov is the U.S. government's official web portal to all federal, state and local government web resources and services.